Location: Unspecified
(41.1637°N, 24.2901°E)
Time: 13:25:09
(UTC+02:00)

ISS - Pass Details

Date: 09 May 2026
Orbit: 414 x 424 km, 51.6° (Epoch: 12 May)

Event Time Altitude Azimuth Distance (km) Brightness Sun altitude
Rises 21:41:18 0° 259° (W) 2,343 0.4 -20.8°
Reaches altitude 10° 21:43:33 10° 270° (W) 1,484 -0.5 -21.1°
Maximum altitude 21:46:32 30° 335° (NNW) 767 -1.8 -21.5°
Drops below altitude 10° 21:49:33 10° 39° (NE) 1,491 -0.8 -21.8°
Enters shadow 21:51:22 - 49° (NE) 2,180 -0.1 -22.0°
